Orbital Elements at Epoch 2457800.5 (2017-Feb-16.0) TDB
Reference: JPL 34 (heliocentric ecliptic J2000)
Element | Value | Uncertainty (1-sigma) | Units |
e | .2690855682830409 | 7.2381e-06 | |
a | 4.175589673964971 | 5.8146e-05 | au |
q | 3.05199875362931 | 1.2834e-05 | au |
i | 16.30241060819607 | 3.8867e-05 | deg |
node | 139.0469656594007 | 9.3181e-05 | deg |
peri | 188.9032147685223 | 0.0015794 | deg |
M | 90.26207917496895 | 0.0027422 | deg |
tp | 2457019.091768763866 (2014-Dec-27.59176876) | 0.0075766 | TDB |
period | 3116.557537963506 8.53 | 0.065098 0.0001782 | d yr |
n | .1155120659942122 | 2.4128e-06 | deg/d |
Q | 5.299180594300633 | 7.3792e-05 | au |
|
Additional Model Parameters
Parameter | Value | Uncertainty (1-sigma) |
A1 [EST] | 8.279241444688861E-7 | 1.896E-7 |
A2 [EST] | 3.841852224195566E-7 | 9.151E-8 |
A3 [EST] | -6.872296817210905E-7 | 2.654E-8 |
|
| | Orbit Determination Parameters
Additional Information
|